GW2240 Weather Reports


time (UTC)temp
C
wind
direction
speed
KPH
gust
KPH
rain 1hr
cm
rain 24hr
cm
rain mn
cm
humidity
%
barometer
mb
20260510000103 27 349 0.0 0.0 0.00 0.00 0.00 84 1007.9
20260509234612 27 349 0.0 0.0 0.00 0.00 0.00 83 1007.9
20260509233156 27 349 0.0 0.0 0.00 0.00 0.00 83 1008.0
20260509231557 27 349 0.0 0.0 0.00 0.00 0.00 82 1008.0
20260509224555 28 349 0.0 0.0 0.00 0.00 0.00 79 1007.8
20260509223055 28 349 0.0 0.0 0.00 0.00 0.00 77 1007.7
20260509221555 29 349 0.0 0.0 0.00 0.00 0.00 76 1007.5
20260509220055 29 21 0.0 0.0 0.00 0.00 0.00 74 1007.6
20260509214554 29 137 0.0 0.0 0.00 0.00 0.00 74 1007.7
20260509213058 28 24 0.0 0.0 0.00 0.00 0.00 78 1007.6
20260509211601 28 24 0.0 0.0 0.00 0.00 0.00 80 1007.7
20260509210052 28 24 0.0 0.0 0.00 0.00 0.00 80 1007.9
20260509204548 29 24 0.0 0.0 0.00 0.00 0.00 73 1008.1
20260509203047 31 338 0.0 0.0 0.00 0.00 0.00 70 1008.2
20260509201547 29 183 0.0 0.0 0.00 0.00 0.00 75 1008.4
20260509200052 28 137 0.0 0.0 0.00 0.00 0.00 78 1008.6
20260509194542 30 144 0.0 0.0 0.00 0.00 0.00 74 1008.8
20260509193041 30 258 0.0 0.0 0.00 0.00 0.00 71 1008.8
20260509191540 30 164 0.0 0.0 0.00 0.00 0.00 71 1009.0
20260509190040 30 176 0.0 0.0 0.00 0.00 0.00 75 1009.3
20260509184535 29 202 0.0 0.0 0.00 0.00 0.00 78 1009.6
20260509183040 28 340 0.0 0.0 0.00 0.00 0.00 81 1009.7
20260509181542 27 22 0.0 0.0 0.00 0.00 0.00 81 1010.2
20260509180030 28 3 0.0 0.0 0.00 0.00 0.00 80 1010.4
20260509174532 27 3 0.0 0.0 0.00 0.00 0.00 83 1010.5
20260509173027 27 3 0.0 0.0 0.00 0.00 0.00 81 1010.5
20260509171527 27 19 0.0 3.2 0.00 0.00 0.00 81 1010.4
20260509170023 27 11 0.0 0.0 0.00 0.00 0.00 84 1010.4
20260509164522 27 126 0.0 0.0 0.00 0.00 0.00 83 1010.4
20260509163028 26 116 0.0 0.0 0.00 0.00 0.00 89 1010.2
20260509161516 25 116 0.0 0.0 0.00 0.00 0.00 91 1010.6
20260509160016 25 97 0.0 0.0 0.00 0.00 0.00 91 1010.8
20260509154512 25 98 0.0 0.0 0.00 0.00 0.00 93 1010.8
20260509153010 25 98 0.0 0.0 0.00 0.00 0.00 93 1010.7
20260509151508 24 19 0.0 0.0 0.00 0.00 0.00 94 1010.8
20260509150012 24 19 0.0 0.0 0.00 0.00 0.00 95 1010.5
20260509144501 23 19 0.0 0.0 0.00 0.00 0.00 95 1010.5
20260509143101 23 19 0.0 0.0 0.00 0.00 0.00 95 1010.4
20260509143002 23 19 0.0 0.0 0.00 0.00 0.00 95 1010.4
20260509141609 23 19 0.0 0.0 0.00 0.00 0.00 95 1010.0
20260509140059 23 19 0.0 0.0 0.00 0.00 0.00 95 1010.1
20260509134557 23 19 0.0 0.0 0.00 0.00 0.00 95 1010.2
20260509133049 23 19 0.0 0.0 0.00 0.00 0.00 95 1010.6
20260509131547 23 19 0.0 0.0 0.00 0.00 0.00 95 1010.8
20260509130042 23 19 0.0 0.0 0.00 0.00 0.00 95 1010.6
20260509124538 22 19 0.0 0.0 0.00 0.00 0.00 95 1010.7
20260509123034 22 19 0.0 0.0 0.00 0.00 0.00 95 1010.7
20260509121535 22 20 0.0 0.0 0.00 0.00 0.00 95 1010.6
20260509120024 22 358 0.0 0.0 0.00 0.00 0.00 95 1010.2
20260509114521 22 358 0.0 0.0 0.00 0.00 0.00 95 1010.0
20260509113017 22 358 0.0 0.0 0.00 0.00 0.00 95 1010.0
20260509111514 22 358 0.0 0.0 0.00 0.00 0.00 95 1009.9
20260509110007 22 358 0.0 0.0 0.00 0.00 0.00 95 1010.1
20260509104503 22 358 0.0 0.0 0.00 0.00 0.00 95 1010.3
20260509103105 22 5 0.0 0.0 0.00 0.00 0.00 95 1010.1
20260509103000 22 5 0.0 0.0 0.00 0.00 0.00 95 1010.2
20260509101558 22 260 0.0 0.0 0.00 0.00 0.00 95 1009.9
20260509100051 22 207 0.0 0.0 0.00 0.00 0.00 95 1009.4
20260509094546 22 207 0.0 0.0 0.00 0.00 0.00 95 1009.3
20260509093052 22 207 0.0 0.0 0.00 0.00 0.00 95 1009.7
20260509091538 22 207 0.0 0.0 0.00 0.00 0.00 95 1009.7
20260509090037 22 207 0.0 0.0 0.00 0.00 0.00 95 1009.9
20260509084543 22 207 0.0 0.0 0.00 0.00 0.00 95 1010.1
20260509083028 22 207 0.0 0.0 0.00 0.00 0.00 95 1010.1
20260509081535 22 207 0.0 0.0 0.00 0.00 0.00 94 1010.0
20260509080029 22 207 0.0 0.0 0.00 0.00 0.00 94 1009.8
20260509074514 22 207 0.0 0.0 0.00 0.00 0.00 94 1009.8
20260509073011 22 207 0.0 0.0 0.00 0.00 0.00 94 1009.7
20260509071506 22 207 0.0 0.0 0.00 0.00 0.00 94 1009.8
20260509070001 22 207 0.0 0.0 0.00 0.00 0.00 95 1009.9
20260509064617 22 207 0.0 0.0 0.00 0.00 0.00 94 1009.9
20260509063058 22 207 0.0 0.0 0.00 0.00 0.00 94 1009.9
20260509061554 22 207 0.0 0.0 0.00 0.00 0.00 94 1010.2
20260509060150 22 207 0.0 0.0 0.00 0.00 0.00 94 1010.4
20260509054646 22 207 0.0 0.0 0.00 0.00 0.00 94 1010.4
20260509053042 22 207 0.0 0.0 0.00 0.00 0.00 94 1010.5
20260509051539 22 207 0.0 0.0 0.00 0.00 0.00 94 1010.5
20260509050032 22 207 0.0 0.0 0.00 0.00 0.00 94 1010.4
20260509044531 22 207 0.0 0.0 0.00 0.00 0.00 94 1010.6
20260509043031 22 207 0.0 0.0 0.00 0.00 0.00 94 1010.4
20260509041532 22 207 0.0 0.0 0.00 0.00 0.00 94 1010.4
20260509040030 22 207 0.0 0.0 0.00 0.00 0.00 94 1010.4
20260509034530 22 202 0.0 0.0 0.00 0.00 0.00 94 1010.1
20260509033029 22 202 0.0 0.0 0.00 0.00 0.00 94 1010.2
20260509031531 22 192 0.0 0.0 0.00 0.00 0.00 94 1010.2
20260509030028 22 204 0.0 0.0 0.00 0.00 0.00 94 1010.0
20260509024527 22 202 0.0 0.0 0.00 0.00 0.00 94 1009.8
20260509023026 22 206 0.0 0.0 0.00 0.00 0.00 93 1009.7
20260509021526 22 208 0.0 0.0 0.00 0.00 0.00 93 1009.6
20260509020032 22 188 0.0 0.0 0.00 0.00 0.00 93 1009.6
20260509014537 23 202 0.0 0.0 0.00 0.00 0.00 92 1009.4
20260509013024 23 202 0.0 0.0 0.00 0.00 0.00 92 1009.7
20260509011523 23 196 0.0 0.0 0.00 0.00 0.00 91 1009.2
20260509010022 23 200 0.0 0.0 0.00 0.00 0.00 90 1009.1
20260509004523 23 200 0.0 0.0 0.00 0.00 0.00 90 1009.0
20260509003029 23 208 0.0 4.8 0.00 0.00 0.00 89 1009.0
20260509001520 23 317 0.0 0.0 0.00 0.00 0.00 89 1009.3